[[{"header":{"parameterUnit":"m.s-1","parameterCategory":1,"la1":30.2991,"la2":30.254,"lo1":-89.0895,"lo2":-89.0444,"dy":0.0017,"dx":0.0017,"nx":28,"ny":28,"refTime":"2024-04-13T03:00:00:Z","depth":0,"parameterNumber":2,"parameterNumberName":"U-component_of_WINDS"},"data":[0,0,0,0,0,0,0,0,0,0,0,0,0,0,0,0,0,0,0,0,0,0,0,0,0,0,0,0,0,0,0,0,0,0,0,0,0,0,0,0,0,0,0,0,0,0,0,0,0,0,0,0,0,0,0,0,0,0,-1.3745,-1.3745,0,-1.3817,-1.3818,-1.3818,-1.3773,-1.3771,-1.3769,-1.3767,-1.3843,-1.3847,-1.3851,0,0,0,0,0,0,0,0,0,0,0,0,0,-1.357,-1.3574,-1.3745,-1.3745,-1.3746,-1.3817,-1.3818,-1.3819,-1.3774,-1.3771,-1.3769,-1.3766,-1.3842,-1.3847,-1.3851,0,0,0,0,0,0,0,0,0,0,0,0,0,-1.3645,-1.3575,-1.3744,-1.3732,-1.3732,-1.3816,-1.3818,-1.3819,-1.3774,-1.3771,-1.3768,-1.3765,-1.384,-1.3846,-1.3852,-1.3953,0,0,-1.3871,-1.3873,0,0,0,0,0,0,0,0,-1.3641,-1.3651,-1.3733,-1.3733,-1.3733,-1.3783,-1.3784,-1.3864,-1.3775,-1.3758,-1.3767,-1.3763,-1.3826,-1.3833,-1.3853,-1.3957,-1.396,-1.3871,-1.3875,-1.3877,-1.3879,0,0,0,0,0,0,0,-1.3635,-1.3648,-1.3773,-1.3735,-1.3735,-1.3724,-1.3731,-1.3799,-1.3809,-1.376,-1.3757,-1.3766,-1.3825,-1.3848,-1.3855,-1.3961,-1.3871,-1.3876,-1.388,-1.3882,-1.4152,-1.4155,0,0,0,0,0,0,-1.3631,-1.3644,-1.3771,-1.3775,-1.3678,-1.373,-1.3738,-1.377,-1.3808,-1.3811,-1.3768,-1.3763,-1.3839,-1.3848,-1.3857,-1.3979,-1.3877,-1.3883,-1.3886,-1.4148,-1.4153,-1.4156,0,0,0,0,0,0,-1.3627,-1.3643,-1.3768,-1.3709,-1.3724,-1.3736,-1.3773,-1.3773,-1.3796,-1.3815,-1.3817,-1.3789,-1.3837,-1.3849,-1.393,-1.3981,-1.3886,-1.3891,-1.4144,-1.415,-1.4155,-1.4223,0,0,0,0,0,0,-1.3623,-1.3642,-1.368,-1.371,-1.3727,-1.3839,-1.3776,-1.3777,-1.3806,-1.38,-1.3835,-1.3838,-1.3835,-1.3921,-1.3936,-1.3988,-1.3896,-1.414,-1.4147,-1.4153,-1.4217,-1.423,-1.4242,0,0,0,0,0,-1.3616,-1.3696,-1.3682,-1.3697,-1.3775,-1.3842,-1.3852,-1.3847,-1.381,-1.3849,-1.3861,-1.3837,-1.3973,-1.393,-1.3946,-1.4001,-1.4136,-1.4145,-1.4152,-1.4211,-1.4228,-1.4242,0,0,0,0,0,0,-1.3672,-1.37,-1.3684,-1.3776,-1.3807,-1.3834,-1.3883,-1.3864,-1.3907,-1.39,-1.3892,-1.39,-1.3985,-1.4,-1.3952,-1.4101,-1.4049,-1.4061,-1.4088,-1.4104,-1.4117,-1.4112,-1.3901,0,0,0,0,0,-1.3695,-1.3747,-1.3768,-1.3847,-1.3863,-1.3871,-1.3899,-1.3893,-1.3925,-1.3938,-1.3956,-1.3988,-1.4038,-1.4072,-1.4119,-1.4218,-1.4226,-1.4264,-1.4276,-1.4287,-1.4298,-1.4353,-1.437,-1.4183,-1.4183,-1.4183,0,0,-1.3743,-1.3765,-1.3798,-1.3859,-1.3882,-1.3936,-1.3882,-1.3941,-1.3982,-1.3947,-1.4025,-1.4039,-1.4075,-1.4166,-1.4206,-1.4181,-1.4351,-1.4297,-1.4305,-1.431,-1.4363,-1.4381,-1.4396,-1.4188,-1.4187,-1.4186,0,0,-1.3859,-1.388,-1.3949,-1.3973,-1.4008,-1.4012,-1.4029,-1.4059,-1.4067,-1.4145,-1.412,-1.4168,-1.4254,-1.4282,-1.4307,-1.4433,-1.4412,-1.4448,-1.4516,-1.457,-1.4585,-1.4598,-1.4645,-1.4661,-1.4458,-1.4459,-1.4459,0,-1.3915,-1.3995,-1.3987,-1.4048,-1.4077,-1.4046,-1.4117,-1.4141,-1.419,-1.4211,-1.4181,-1.429,-1.4311,-1.4409,-1.444,-1.446,-1.448,-1.4445,-1.4583,-1.4596,-1.4608,-1.4653,-1.467,-1.4463,-1.4462,-1.4462,-1.4462,0,-1.4063,-1.4119,-1.417,-1.4219,-1.4252,-1.4318,-1.432,-1.4356,-1.4346,-1.4354,-1.4434,-1.4459,-1.4511,-1.4533,-1.4524,-1.463,-1.4613,-1.4583,-1.4532,-1.4631,-1.4672,-1.4689,-1.4469,-1.4468,-1.4466,-1.4465,0,0,-1.4217,-1.426,-1.4279,-1.4301,-1.4338,-1.4381,-1.4446,-1.4496,-1.4528,-1.4563,-1.4618,-1.4691,-1.4664,-1.4693,-1.4687,-1.4733,-1.4834,-1.4698,-1.4699,-1.4724,-1.4954,-1.4977,-1.4997,-1.482,-1.4823,-1.4825,-1.4951,0,-1.4337,-1.445,-1.4444,-1.455,-1.4602,-1.4574,-1.4631,-1.466,-1.4669,-1.4715,-1.4725,-1.4778,-1.4737,-1.4755,-1.4799,-1.4812,-1.488,-1.4803,-1.4873,-1.4875,-1.4867,-1.5019,-1.5044,-1.5162,-1.4968,-1.497,-1.4972,0,-1.4492,-1.4532,-1.4643,-1.4673,-1.4695,-1.4746,-1.4792,-1.4836,-1.4869,-1.4872,-1.4904,-1.489,-1.4957,-1.4902,-1.4994,-1.4942,-1.497,-1.498,-1.4985,-1.4993,-1.4931,-1.5033,-1.5199,-1.5217,-1.4998,-1.4996,-1.4994,0,-1.4596,-1.4677,-1.4755,-1.4774,-1.481,-1.4847,-1.4864,-1.4894,-1.4925,-1.4965,-1.4985,-1.5033,-1.506,-1.5098,-1.5098,-1.5057,-1.5192,-1.5136,-1.5198,-1.5198,-1.5229,-1.5228,-1.5404,-1.5244,-1.5244,-1.5243,-1.5243,0,-1.4731,-1.4801,-1.4802,-1.485,-1.4928,-1.492,-1.4998,-1.5011,-1.5037,-1.5088,-1.5066,-1.5114,-1.511,-1.5159,-1.5159,-1.5237,-1.5248,-1.5254,-1.5254,-1.5257,-1.5257,-1.5277,-1.527,-1.5248,-1.5247,-1.5246,-1.5245,0,-1.4861,-1.4865,-1.4948,-1.4975,-1.4983,-1.504,-1.5063,-1.5109,-1.5116,-1.518,-1.5195,-1.5206,-1.5262,-1.5265,-1.533,-1.533,-1.5425,-1.5415,-1.5414,-1.5413,-1.5475,-1.547,-1.5672,-1.5699,-1.552,-1.5522,-1.5523,0,-1.4949,-1.5002,-1.5035,-1.5067,-1.5086,-1.5138,-1.5169,-1.5164,-1.5198,-1.5239,-1.5281,-1.5335,-1.5378,-1.547,-1.5484,-1.5534,-1.5526,-1.5593,-1.5533,-1.5536,-1.5529,-1.5527,-1.5533,-1.5606,-1.5608,-1.5609,-1.5611,0,-1.5104,-1.5103,-1.5149,-1.5196,-1.5234,-1.5271,-1.5305,-1.5333,-1.5332,-1.5371,-1.5428,-1.5462,-1.5528,-1.5583,-1.5632,-1.565,-1.5631,-1.5629,-1.5646,-1.5652,-1.565,-1.5653,-1.5448,-1.5625,-1.5623,-1.5622,-1.5622,-1.5621,-1.5216,-1.5263,-1.5293,-1.5346,-1.5371,-1.5403,-1.5448,-1.546,-1.5508,-1.5561,-1.5555,-1.5619,-1.5651,-1.5715,-1.5737,-1.5787,-1.5764,-1.5789,-1.5795,-1.5802,-1.581,-1.564,-1.5796,-1.5795,-1.5795,-1.5795,-1.5794,0,-1.5372,-1.539,-1.5438,-1.5487,-1.5528,-1.5505,-1.5542,-1.5579,-1.5635,-1.5666,-1.5709,-1.5776,-1.5829,-1.5847,-1.5899,-1.5936,-1.5929,-1.595,-1.5948,-1.5953,-1.5826,-1.5807,-1.5955,-1.5955,-1.5955,-1.5955,-1.5955,-1.5955,-1.5458,-1.5536,-1.5538,-1.5629,-1.5646,-1.5709,-1.5732,-1.5762,-1.5787,-1.5862,-1.5906,-1.5917,-1.5943,-1.5997,-1.6045,-1.6049,-1.607,-1.6095,-1.6096,-1.5978,-1.5962,-1.5946,-1.5928,-1.6099,-1.6099,-1.6218,-1.622,-1.622]},{"header":{"parameterUnit":"m.s-1","parameterCategory":1,"la1":30.2991,"la2":30.254,"lo1":-89.0895,"lo2":-89.0444,"dy":0.0017,"dx":0.0017,"nx":28,"ny":28,"refTime":"2024-04-13T03:00:00:Z","depth":0,"parameterNumber":3,"parameterNumberName":"V-component_of_WINDS"},"data":[0,0,0,0,0,0,0,0,0,0,0,0,0,0,0,0,0,0,0,0,0,0,0,0,0,0,0,0,0,0,0,0,0,0,0,0,0,0,0,0,0,0,0,0,0,0,0,0,0,0,0,0,0,0,0,0,0,0,-1.3264,-1.3265,0,-1.3323,-1.3324,-1.3325,-1.334,-1.334,-1.3339,-1.3339,-1.3398,-1.34,-1.3402,0,0,0,0,0,0,0,0,0,0,0,0,0,-1.3163,-1.3165,-1.3264,-1.3265,-1.3266,-1.3323,-1.3324,-1.3325,-1.334,-1.334,-1.3339,-1.3339,-1.3398,-1.34,-1.3402,0,0,0,0,0,0,0,0,0,0,0,0,0,-1.3213,-1.3166,-1.3264,-1.328,-1.3282,-1.3323,-1.3324,-1.3325,-1.334,-1.334,-1.3339,-1.3339,-1.3397,-1.34,-1.3403,-1.3431,0,0,-1.3411,-1.3413,0,0,0,0,0,0,0,0,-1.321,-1.3217,-1.3277,-1.3279,-1.3282,-1.3324,-1.331,-1.3361,-1.3341,-1.3318,-1.3339,-1.3339,-1.3374,-1.3379,-1.3391,-1.3434,-1.3436,-1.3412,-1.3413,-1.3415,-1.3415,0,0,0,0,0,0,0,-1.3207,-1.3214,-1.3288,-1.3278,-1.3281,-1.3284,-1.3291,-1.332,-1.3348,-1.332,-1.3321,-1.3328,-1.3375,-1.3388,-1.3392,-1.3437,-1.3411,-1.3414,-1.3416,-1.3417,-1.3507,-1.3507,0,0,0,0,0,0,-1.3201,-1.3211,-1.3286,-1.3289,-1.3244,-1.3287,-1.3294,-1.3311,-1.3348,-1.3353,-1.3329,-1.3329,-1.3383,-1.3389,-1.3394,-1.3431,-1.3414,-1.3417,-1.3419,-1.3506,-1.3507,-1.3507,0,0,0,0,0,0,-1.3199,-1.3207,-1.3283,-1.3251,-1.3261,-1.3289,-1.3308,-1.3312,-1.3325,-1.3355,-1.336,-1.3337,-1.3383,-1.339,-1.3422,-1.3433,-1.3418,-1.3421,-1.3505,-1.3506,-1.3507,-1.3502,0,0,0,0,0,0,-1.3196,-1.3206,-1.3218,-1.3251,-1.3262,-1.331,-1.3309,-1.3314,-1.3331,-1.3331,-1.3364,-1.3368,-1.3383,-1.3418,-1.3425,-1.3436,-1.3423,-1.3504,-1.3506,-1.3507,-1.3502,-1.3503,-1.3504,0,0,0,0,0,-1.3192,-1.3214,-1.3218,-1.3227,-1.3277,-1.3311,-1.3317,-1.3334,-1.3331,-1.3343,-1.3362,-1.3367,-1.343,-1.3421,-1.3429,-1.3442,-1.3504,-1.3505,-1.3507,-1.3501,-1.3503,-1.3504,0,0,0,0,0,0,-1.318,-1.3218,-1.3224,-1.3257,-1.3281,-1.3313,-1.3328,-1.3336,-1.336,-1.336,-1.338,-1.3387,-1.3417,-1.3432,-1.3421,-1.3471,-1.3467,-1.347,-1.346,-1.3462,-1.3463,-1.3459,-1.3426,0,0,0,0,0,-1.3182,-1.3206,-1.3238,-1.3264,-1.3276,-1.33,-1.3315,-1.3326,-1.3351,-1.3361,-1.3382,-1.3406,-1.3431,-1.3447,-1.3472,-1.3504,-1.3511,-1.3517,-1.3518,-1.3519,-1.3522,-1.354,-1.3543,-1.3512,-1.3512,-1.3512,0,0,-1.3185,-1.3209,-1.3223,-1.3262,-1.3282,-1.3307,-1.3308,-1.3334,-1.3352,-1.3365,-1.3396,-1.3413,-1.344,-1.3472,-1.3487,-1.3486,-1.3532,-1.3521,-1.3521,-1.3524,-1.3542,-1.3544,-1.3547,-1.3513,-1.3513,-1.3513,0,0,-1.3203,-1.3223,-1.3248,-1.3267,-1.3297,-1.3313,-1.3319,-1.3351,-1.3362,-1.3394,-1.3404,-1.3426,-1.3469,-1.3489,-1.3504,-1.353,-1.3536,-1.3537,-1.3544,-1.3561,-1.3564,-1.3566,-1.3575,-1.3578,-1.354,-1.354,-1.354,0,-1.3203,-1.3241,-1.3259,-1.3285,-1.3302,-1.3315,-1.334,-1.3358,-1.3394,-1.3405,-1.3403,-1.3458,-1.3477,-1.3514,-1.352,-1.3533,-1.354,-1.3534,-1.3562,-1.3564,-1.3567,-1.3576,-1.3579,-1.354,-1.354,-1.354,-1.354,0,-1.3239,-1.3265,-1.3281,-1.3316,-1.3335,-1.336,-1.3382,-1.3399,-1.3408,-1.3425,-1.3457,-1.3481,-1.3511,-1.352,-1.353,-1.3558,-1.3557,-1.3558,-1.3554,-1.3569,-1.3578,-1.3582,-1.3539,-1.3539,-1.354,-1.354,0,0,-1.3251,-1.3297,-1.3302,-1.3319,-1.3353,-1.3373,-1.3398,-1.3428,-1.3442,-1.3467,-1.3489,-1.3525,-1.3527,-1.3544,-1.3556,-1.3571,-1.359,-1.3571,-1.3572,-1.3574,-1.3624,-1.3622,-1.3626,-1.3595,-1.3595,-1.3596,-1.3621,0,-1.3274,-1.332,-1.3338,-1.3376,-1.34,-1.3413,-1.3435,-1.3458,-1.3474,-1.3496,-1.3514,-1.3539,-1.3539,-1.355,-1.3566,-1.3585,-1.3601,-1.3583,-1.3615,-1.3616,-1.3608,-1.3631,-1.3629,-1.3652,-1.3625,-1.3625,-1.3626,0,-1.3306,-1.3332,-1.3372,-1.3404,-1.3414,-1.3434,-1.3463,-1.3484,-1.3511,-1.3521,-1.3541,-1.3552,-1.3579,-1.3573,-1.361,-1.3598,-1.3612,-1.3623,-1.3625,-1.3628,-1.3622,-1.3635,-1.366,-1.3663,-1.3631,-1.3631,-1.3631,0,-1.3311,-1.3356,-1.3386,-1.3399,-1.3437,-1.345,-1.3466,-1.3492,-1.3509,-1.3534,-1.3545,-1.3573,-1.3588,-1.3609,-1.3627,-1.3621,-1.3662,-1.3659,-1.3672,-1.3671,-1.368,-1.3679,-1.3707,-1.3689,-1.3689,-1.3688,-1.3688,0,-1.3335,-1.3359,-1.3389,-1.3407,-1.3435,-1.3454,-1.3481,-1.3498,-1.3521,-1.3543,-1.3555,-1.3575,-1.3598,-1.3621,-1.3635,-1.3663,-1.367,-1.3679,-1.3682,-1.3678,-1.3677,-1.3687,-1.3686,-1.3689,-1.3689,-1.3689,-1.3689,0,-1.3345,-1.3366,-1.34,-1.3432,-1.3441,-1.346,-1.3488,-1.3506,-1.3523,-1.355,-1.3557,-1.3583,-1.3611,-1.3631,-1.3666,-1.3676,-1.3706,-1.371,-1.3698,-1.3699,-1.3712,-1.371,-1.3748,-1.3754,-1.3731,-1.3731,-1.3731,0,-1.3359,-1.3378,-1.3413,-1.3428,-1.3445,-1.347,-1.3487,-1.3507,-1.3525,-1.3557,-1.3571,-1.36,-1.3624,-1.3667,-1.3689,-1.3716,-1.372,-1.3731,-1.3724,-1.3719,-1.372,-1.3719,-1.3721,-1.3732,-1.3732,-1.3732,-1.3733,0,-1.3381,-1.339,-1.3415,-1.3444,-1.3465,-1.3488,-1.3512,-1.3524,-1.3548,-1.3567,-1.3596,-1.3614,-1.3651,-1.3679,-1.3708,-1.3724,-1.3733,-1.3735,-1.3739,-1.3735,-1.3727,-1.3732,-1.3701,-1.3734,-1.3734,-1.3733,-1.3733,-1.3733,-1.3393,-1.3411,-1.3438,-1.3466,-1.3486,-1.3508,-1.3526,-1.3545,-1.357,-1.3602,-1.3612,-1.3641,-1.3667,-1.3708,-1.3724,-1.3748,-1.3747,-1.3754,-1.3755,-1.3757,-1.3757,-1.3723,-1.3753,-1.3753,-1.3753,-1.3753,-1.3753,0,-1.3416,-1.3434,-1.3459,-1.3492,-1.3514,-1.352,-1.3547,-1.3564,-1.359,-1.3614,-1.3638,-1.3671,-1.3698,-1.3722,-1.375,-1.3764,-1.3769,-1.3771,-1.377,-1.3774,-1.3755,-1.3749,-1.3767,-1.3767,-1.3767,-1.3767,-1.3767,-1.3767,-1.343,-1.3461,-1.3473,-1.3514,-1.3532,-1.3561,-1.3576,-1.3596,-1.3615,-1.3652,-1.3675,-1.369,-1.3714,-1.3745,-1.377,-1.3776,-1.3786,-1.3788,-1.3795,-1.3777,-1.3775,-1.3774,-1.3768,-1.379,-1.379,-1.3812,-1.3812,-1.3812]}]]